{"data":{"norad_id":58051,"intl_designator":"2023-158A","name":"STARLINK-30568","alt_names":[],"object_type":"PAYLOAD","status":"ACTIVE","operator":null,"country":"US","launch_date":"2023-10-13","launch_site_code":"AFETR","launch_vehicle":null,"mission":null,"orbit_class":"UNKNOWN","rcs_meters":null,"size_class":null,"mass_kg":null,"dimensions":null,"purposes":["comms"],"wikipedia_slug":null,"has_3d_model":false,"image_url":null,"decayed_at":null,"tle_current":{"epoch":"2026-05-25T04:21:20.379168Z","epoch_age_seconds":60142,"freshness":"FRESH","line1":"1 58051U 23158A   26145.18148587  .00000741  00000+0  36431-4 0  9990","line2":"2 58051  43.0041 315.4711 0001455 264.1115  95.9571 15.27587341145256","mean_motion":15.27587341,"eccentricity":0.0001455,"inclination_deg":43.0041,"raan_deg":315.4711,"arg_perigee_deg":264.1115,"mean_anomaly_deg":95.9571,"bstar":3.6431e-5,"rev_number":14525,"period_min":94.266295703743,"perigee_km":482.02881515411,"apogee_km":484.02541391144,"semimajor_km":6861.1641145328,"source":"CELESTRAK","updated_at":"2026-05-25T13:38:18.498603Z"}}}